Weather in Armenia

Colombia     4°32′04″N   75°40′42″W
temp.,
°C
wind,
m/s
gust,
m/s
humid.,
%
clouds,
%
prec.,
mm/h
press.,
hPa
HPBL,
m
11 april, sun
sun1101:00+15ese1196100 7.8 101318
04:00+15e119591 1.8 101318
07:00+16ese0093100 2.8 101548
10:00+20nw117875 0.9 1015752
13:00+21wnw1179100 1.5 1012548
16:00+21wnw2280100 0.0 1008440
19:00+18ese1192100 0.1 101126
22:00+17ese1187100 0.0 101316
12 april, mon
mon1201:00+17e118796 0.0 101217
04:00+15e1188100 0.0 101215
07:00+17ese018288 0.0 101457
10:00+22wnw117073 0.1 1013676
13:00+25nw125741 0.8 10081178
16:00+23w127861 1.5 1007197
19:00+18e229357 3.4 101137
22:00+16ese219259 0.3 101427
13 april, tue
tue1301:00+15ese119161 0.4 101322
04:00+15ene1191100 0.4 101325
07:00+16ene1188100 0.4 101448
10:00+22wnw226758 0.0 1013739
13:00+26wnw335698 0.1 10081143
16:00+25w116470 0.8 1006736
19:00+18se219467 4.0 101031
22:00+16ese219593 2.1 101426
14 april, wed
wed1401:00+15ese119444 5.5 101421
04:00+15e1195100 0.3 101316
07:00+17e119085 0.4 101552
10:00+23wnw226894 0.0 1013872
13:00+25w216439 0.7 10091017
16:00+23nw0180100 3.3 1007336
19:00+18ese2195100 10.5 101134
22:00+16ese119690 6.2 101421
15 april, thu
thu1501:00+15ese1196100 9.3 101317
04:00+16ese1195100 1.8 101323
07:00+16ne009489 2.8 101432
10:00+20wsw118399 0.7 1014407
13:00+23wsw227376 1.6 1010880
16:00+21nw0184100 2.9 1008142
19:00+17ese2294100 9.1 101145
22:00+16ese1196100 3.4 101424